Regional Weather Roundup
Issued by NWS

Home | Current Version | Previous Version | Text Only | Print | Product List | Glossary On
Versions: 1 2 3 4 5 6 7 8 9 10 11 12 13 14 15 16 17 18 19 20 21 22 23 24 25 26 27 28 29 30 31 32 33 34 35 36 37 38 39 40 41 42 43 44 45 46 47 48 49 50
000
ASUS42 KTBW 290017
RWRFL
FLORIDA REGIONAL WEATHER ROUNDUP
NATIONAL WEATHER SERVICE TAMPA BAY RUSKIN FL
800 PM EDT THU JUL 28 2016

NOTE: "FAIR" INDICATES FEW OR NO CLOUDS BELOW 12,000 FEET WITH NO
SIGNIFICANT WEATHER AND/OR OBSTRUCTIONS TO VISIBILITY.

FLZ001>010-012>015-112-114-115-290100-
PANHANDLE FLORIDA

CITY           SKY/WX    TMP DP  RH WIND       PRES   REMARKS
PENSACOLA      CLEAR     88  70  55 W8        29.99S
PENSACOLA NAS  PTCLDY    87  75  67 SW6       29.99S HX  96
MILTON NAS     PTCLDY    87  72  60 SW8       29.99S
CRESTVIEW      CLEAR     89  69  51 W8        30.01R
DUKE FIELD     PTCLDY    88  73  60 SW8       30.00R HX  95
PANAMA CITY    FAIR      86  74  67 S7        29.99S
TYNDALL AFB    CLEAR     86  75  68 W6        30.00  HX  95
APALACHICOLA   CLEAR     88  77  69 W8        30.01S HX 100

STATION/POSITION SKY/WX   TEMP    WIND        PRES    WAVE   SWELL
                          AIR SEA DIR/SP/G            HT/PER HT/PER
                          (F)     (DEG/KT/KT) (MB)    (FT/S) (FT/S)
30.1N   87.6W              86 88  240/  6/  8 1015.9S   1/ 6   2/ 6
29.2N   88.2W              86 89  160/ 10/ 12 1015.5R
28.8N   86.0W              86 88  200/  4/  6 1016.9R   2/ 5   2/ 5
PANAMA CITY BEAC              90                N/A
TOWER C                    86     260/  6/  7 1017.1R
28.5N   84.5W              89 91  260/  2/  2 1016.5R   1/ 5   2/ 5

$$
FLZ011-016>038-118-127-128-134-139-239-290100-
NORTH FLORIDA

CITY           SKY/WX    TMP DP  RH WIND       PRES   REMARKS
MARIANNA       CLEAR     90  73  57 SW6       29.98R HX  98
TALLAHASSEE    PTCLDY    86  76  71 SE5       30.00S HX  96
PERRY          CLEAR     88  74  64 SW8       30.01F HX  97
LIVE OAK       FAIR      91  73  55 SW7       30.01S HX 100
CROSS CITY       N/A     89  74  60 W6        30.00S HX  98
LAKE CITY      FAIR      88  73  62 SW6       30.00S HX  96
GAINESVILLE    PTCLDY    89  71  55 W8        30.01R HX  95
WILLISTON      FAIR      91  75  59 W5        30.01S HX 102
PALATKA        MOCLDY    86  72  62 S9        30.00R
MAYPORT NAS    MOCLDY    86  77  74 VRB5      30.00R THUNDER HX  97
JACKSONVILLE   MOCLDY    79  75  87 NE7       29.99R THUNDER
JAX NAS        MOCLDY    92  76  59 SE12      30.00R THUNDER HX 104
JAX CECIL      PTCLDY    91  72  52 W8        29.98S HX  98
FERNANDINA BEA CLOUDY    79  72  78 SW13G28   29.99R THUNDER
ST AUGUSTINE   MOCLDY    86  77  74 W7        30.03R HX  97
PALM COAST     FAIR      84  76  76 SE6       30.00R

STATION/POSITION SKY/WX   TEMP    WIND        PRES    WAVE   SWELL
                          AIR SEA DIR/SP/G            HT/PER HT/PER
                          (F)     (DEG/KT/KT) (MB)    (FT/S) (FT/S)
SHELL POINT                89     220/ 11/ 13 1014.8
KEATON BEACH               87     250/  8/  9 1016.0F
CEDAR KEY                  88     290/  8/  9 1016.6S
FERNANDINA                    87                N/A
30.7N   81.3W                 86                N/A     2/ 3
MAYPORT                       86                N/A
31.4N   80.9W              87 87  160/ 16/ 19 1014.1    2/ 4
ST AUGUSTINE               84 87  170/ 14/ 15 1016.8R

$$
FLZ040-043>046-052-053-057-058-063-144-290100-
INTERIOR CENTRAL FLORIDA

CITY           SKY/WX    TMP DP  RH WIND       PRES   REMARKS
OCALA          CLEAR     84  73  70 CALM      30.02R
THE VILLAGES     N/A     91  73  55 MISG      29.91R HX 100
LEESBURG       PTCLDY    89  73  59 NW8       30.01R HX  97
SANFORD        MOCLDY    93  68  43 SW5       29.99S HX  97
ORLANDO EXEC   CLEAR     92  69  47 S8        30.00S HX  97
ORLANDO INTL   PTCLDY    89  70  53 S6        30.00S
KISSIMMEE      CLEAR     89  72  56 S5        30.02R HX  96
WINTER HAVEN   CLEAR     89  69  51 CALM      30.02R
LAKELAND       PTCLDY    90  73  58 S5        30.01S HX  98
BARTOW         FAIR      88  75  66 S3        30.01S HX  97
OKEECHOBEE     CLEAR     82  73  74 CALM      30.02S

$$
FLZ041-047-054-059-064-141-147-290100-
EAST CENTRAL FLORIDA

CITY           SKY/WX    TMP DP  RH WIND       PRES   REMARKS
DAYTONA BEACH  PTCLDY    88  70  55 SE5       30.00S
NEW SMYRNA BEA PTCLDY    86  73  66 SE9       30.02S
JFK SPACE CTR  CLEAR     86  74  67 S9        30.00
TITUSVILLE     PTCLDY    86  75  70 SE13      30.01S HX  95
PATRICK AFB    CLEAR     85  78  78 SE15      30.01S HX  96
MELBOURNE      CLEAR     86  75  69 SE14      30.02R HX  95
VERO BEACH     CLEAR     84  73  69 SE16      30.03R
FT PIERCE      CLEAR     84  74  71 SE13      30.03R
STUART         CLEAR     86  75  70 SE12G17   30.05R HX  95

STATION/POSITION SKY/WX   TEMP    WIND        PRES    WAVE   SWELL
                          AIR SEA DIR/SP/G            HT/PER HT/PER
                          (F)     (DEG/KT/KT) (MB)    (FT/S) (FT/S)
28.5N   80.2W              85 85  140/ 12/ 12 1016.7F
28.9N   78.5W              86 88  270/  2/  4 1017.2F
TRIDENT PIER                  87                N/A
28.4N   80.5W                 83                N/A     2/ 3
27.5N   80.2W                 84                N/A     1/ 3

$$
FLZ050-056-061-142-242-148-248-149-249-151-251-155-255-
160-260-290100-
WEST CENTRAL FLORIDA

CITY           SKY/WX    TMP DP  RH WIND       PRES   REMARKS
CRYSTAL RIVER  FAIR      86  77  74 W3        30.01S HX  97
INVERNESS      FAIR      88  77  70 CALM      30.02R HX 100
BROOKSVILLE    CLEAR     87  74  64 NW8       30.02R HX  95
ZEPHYRHILLS    FAIR      86  71  60 NW7       30.01S
CLEARWATER AIR FAIR      86  73  66 W5        30.01S
ST PETE CLEARW PTCLDY    87  72  60 W8        30.01R
TAMPA INTL     MOCLDY    88  73  61 W8        30.01S HX  95
TAMPA EXEC     PTCLDY    90  75  62 CALM      30.01S HX 100
PLANT CITY     CLEAR     90  77  66 W5        30.03R HX 102
MACDILL AFB    PTCLDY    88  77  68 NW3       30.01R HX 100
PETER O KNIGHT PTCLDY    90  77  66 NW3       30.01S HX 102
ST PETERSBURG  PTCLDY    87  74  64 W7        29.99S HX  95
SARASOTA       MOCLDY    89  72  56 W7        29.99S HX  96
VENICE         NOT AVBL

STATION/POSITION SKY/WX   TEMP    WIND        PRES    WAVE   SWELL
                          AIR SEA DIR/SP/G            HT/PER HT/PER
                          (F)     (DEG/KT/KT) (MB)    (FT/S) (FT/S)
27.3N   84.2W                 88                N/A     1/ 5
CLEARWATER BEACH              90                N/A
MIDDLE TAMPA BAY                  310/  8/  9   N/A
VENICE                     87 91  250/  3/  4 1016.1R

$$
FLZ066-069-070-075>078-162-262-165-265-290100-
SOUTHWEST FLORIDA AND KEYS

CITY           SKY/WX    TMP DP  RH WIND       PRES   REMARKS
PUNTA GORDA    CLOUDY    85  76  74 CALM      30.03S THUNDER
FT MYERS       CLOUDY    81  76  84 NE5       30.00F
SOUTHWEST INTL CLOUDY    83  75  77 E5        30.01F
NAPLES         PTCLDY    86  76  71 NE7       30.01R HX  96
MARCO ISLAND   CLOUDY    88  73  62 SE5       30.02R HX  96
MARATHON       CLEAR     85  77  77 VRB6      30.00S HX  95
KEY WEST NAS   MOCLDY    84  77  79 E13       30.00S
KEY WEST INTL  CLEAR     86  79  79 E13       30.00S HX  99

STATION/POSITION SKY/WX   TEMP    WIND        PRES    WAVE   SWELL
                          AIR SEA DIR/SP/G            HT/PER HT/PER
                          (F)     (DEG/KT/KT) (MB)    (FT/S) (FT/S)
NAPLES                        90                N/A
26.0N   85.6W              85 86  100/ 10/ 10 1016.2S   3/ 5   2/ 5
DRY TORTUGAS               85     120/ 14/ 14 1015.8S
SAND KEY                   84     130/ 13/ 15 1016.0F
LONG KEY                   86 88  110/  9/ 11 1016.3F
MOLASSES REEF              85 86  120/  7/  7 1016.6

$$
FLZ067-068-071>074-168-172>174-290100-
SOUTHEAST FLORIDA

CITY           SKY/WX    TMP DP  RH WIND       PRES   REMARKS
W PALM BEACH   PTCLDY    86  76  71 SE12      30.03S HX  96
BOCA RATON     CLEAR     86  79  79 SE12      30.02S HX  99
FT LAUDER-EXEC PTCLDY    85  76  74 SE13      30.01F
FT LAUDERDALE  PTCLDY    86  77  74 SE12      30.01S HX  97
POMPANO BEACH  CLEAR     86  77  74 SE10      30.02S HX  97
PEMBROKE PINES PTCLDY    87  75  67 E10       30.03S HX  96
OPA LOCKA      CLEAR     86  75  69 SE12      30.02S HX  95
MIAMI          MOCLDY    85  76  74 SE13      30.02S
WEST KENDALL   CLEAR     85  75  72 SE10      30.01S
HOMESTEAD      CLEAR     85  77  76 E8        30.02R HX  96

STATION/POSITION SKY/WX   TEMP    WIND        PRES    WAVE   SWELL
                          AIR SEA DIR/SP/G            HT/PER HT/PER
                          (F)     (DEG/KT/KT) (MB)    (FT/S) (FT/S)
PORT EVERGLADES            87     120/  6/ 10 1016.6F
VIRGINIA KEY                  90                N/A
LAKE WORTH                        140/ 10/ 12   N/A
FOWEY ROCKS                85 85  120/ 11/ 11 1017.2F
SETTLEMENT POINT           85     150/  5/  7 1017.9R

$$




USA.gov is the U.S. government's official web portal to all federal, state and local government web resources and services.